Location: Savignano sul Rubicone
(44.0950°N, 12.4090°E)
Time: 17:01:50
(UTC+02:00)

Envisat - Visible Passes

Search period start: 17 October 2019 00:00
Search period end: 27 October 2019 00:00
Orbit: 764 x 766 km, 98.1° (Epoch: 17 October)

Date Brightness Start Highest point End Pass type
(mag) Time Alt. Az. Time Alt. Az. Time Alt. Az.
17 Oct 6.3 06:48:49 10° ENE 06:51:29 14° E 06:54:08 10° ESE visible
17 Oct 4.0 19:42:07 10° S 19:47:01 48° W 19:51:56 10° NNW visible
18 Oct 3.0 19:05:08 10° SSE 19:10:12 79° ENE 19:15:18 10° N visible
18 Oct 6.1 20:47:31 10° WSW 20:49:49 13° W 20:52:08 10° WNW visible
19 Oct 5.1 20:08:19 10° SSW 20:12:39 28° W 20:17:01 10° NW visible
20 Oct 6.7 06:38:44 10° ENE 06:40:04 11° E 06:41:24 10° ESE visible
20 Oct 3.6 19:30:42 10° S 19:35:42 61° W 19:40:46 10° NNW visible
21 Oct 3.0 18:53:57 10° SSE 18:58:57 63° ENE 19:03:59 10° N visible
21 Oct 5.9 20:35:14 10° SW 20:38:25 17° W 20:41:36 10° NW visible
22 Oct 6.0 07:02:15 10° NE 07:05:54 20° E 07:09:32 10° SE visible
22 Oct 4.7 19:56:42 10° SSW 20:01:19 35° W 20:05:59 10° NNW visible
23 Oct 3.2 19:19:22 10° S 19:24:25 77° WSW 19:29:32 10° NNW visible
24 Oct 3.2 18:42:50 10° SE 18:47:44 50° ENE 18:52:39 10° N visible
24 Oct 5.5 20:23:16 10° SW 20:27:01 21° W 20:30:49 10° NW visible
25 Oct 6.2 06:51:31 10° NE 06:54:31 16° E 06:57:30 10° SE visible
25 Oct 4.2 19:45:10 10° S 19:50:00 44° W 19:54:52 10° NNW visible
26 Oct 3.0 19:08:05 10° SSE 19:13:10 86° ENE 19:18:16 10° NNW visible
26 Oct 6.2 20:51:03 10° WSW 20:52:51 12° W 20:54:39 10° WNW visible
